TimeCDT,TemperatureF,Dew PointF,Humidity,Sea Level PressureIn,VisibilityMPH,Wind Direction,Wind SpeedMPH,Gust SpeedMPH,PrecipitationIn,Events,Conditions,WindDirDegrees,DateUTC
12:17 AM,28.4,28.4,100,30.08,2.0,Calm,Calm,-,N/A,Snow,Light Snow,0,2013-04-18 05:17:00
12:37 AM,28.4,28.4,100,30.07,2.5,Calm,Calm,-,N/A,Snow,Light Snow,0,2013-04-18 05:37:00
12:56 AM,28.4,28.4,100,30.06,1.2,Calm,Calm,-,0.01,Snow,Light Snow,0,2013-04-18 05:56:00
1:17 AM,28.4,28.4,100,30.04,3.0,Calm,Calm,-,0.01,Snow,Light Snow,0,2013-04-18 06:17:00
1:36 AM,28.4,28.4,100,30.04,2.5,Calm,Calm,-,0.01,Snow,Light Snow,0,2013-04-18 06:36:00
1:56 AM,28.4,28.4,100,30.02,2.5,North,3.5,-,N/A,Snow,Light Snow,10,2013-04-18 06:56:00
2:16 AM,28.4,28.4,100,30.00,2.0,NNE,3.5,-,N/A,Snow,Light Snow,20,2013-04-18 07:16:00
2:36 AM,28.4,28.4,100,29.99,1.2,NNE,3.5,-,N/A,Snow,Light Snow,20,2013-04-18 07:36:00
2:57 AM,28.4,28.4,100,29.98,1.2,North,3.5,-,N/A,Snow,Light Snow,10,2013-04-18 07:57:00
3:16 AM,28.4,28.4,100,29.97,1.2,Calm,Calm,-,0.01,Snow,Light Snow,0,2013-04-18 08:16:00
3:37 AM,28.4,28.4,100,29.96,1.2,North,3.5,-,0.02,Snow,Light Snow,10,2013-04-18 08:37:00
3:57 AM,28.4,28.4,100,29.96,1.5,Calm,Calm,-,N/A,Snow,Light Snow,0,2013-04-18 08:57:00
4:16 AM,28.4,26.6,93,29.95,2.5,Calm,Calm,-,N/A,Snow,Light Snow,0,2013-04-18 09:16:00
4:37 AM,28.4,26.6,93,29.95,0.8,NNE,4.6,-,0.02,Snow,Snow,20,2013-04-18 09:37:00
4:57 AM,26.6,26.6,100,29.94,0.8,NE,3.5,-,N/A,Snow,Snow,50,2013-04-18 09:57:00
5:16 AM,26.6,26.6,100,29.95,2.0,North,3.5,-,N/A,Snow,Light Snow,10,2013-04-18 10:16:00
5:37 AM,26.6,26.6,100,29.93,2.0,North,3.5,-,N/A,Snow,Light Snow,360,2013-04-18 10:37:00
5:57 AM,26.6,24.8,93,29.92,2.0,North,4.6,-,N/A,Snow,Light Snow,10,2013-04-18 10:57:00
6:16 AM,26.6,24.8,93,29.92,2.0,North,4.6,-,N/A,Snow,Light Snow,10,2013-04-18 11:16:00
6:37 AM,26.6,24.8,93,29.92,1.0,North,4.6,-,0.01,Snow,Light Snow,10,2013-04-18 11:37:00
6:57 AM,26.6,24.8,93,29.92,0.8,North,3.5,-,N/A,Snow,Light Snow,350,2013-04-18 11:57:00
7:16 AM,26.6,26.6,100,29.92,1.5,Calm,Calm,-,N/A,Snow,Light Snow,0,2013-04-18 12:16:00
7:37 AM,26.6,26.6,100,29.90,4.0,North,4.6,-,N/A,Snow,Light Snow,360,2013-04-18 12:37:00
7:56 AM,26.6,26.6,100,29.90,2.5,NNE,5.8,-,N/A,Snow,Light Snow,20,2013-04-18 12:56:00
8:17 AM,26.6,24.8,93,29.90,1.2,North,8.1,-,N/A,Snow,Light Snow,10,2013-04-18 13:17:00
8:37 AM,26.6,24.8,93,29.90,0.8,North,4.6,-,0.01,Snow,Light Snow,350,2013-04-18 13:37:00
8:56 AM,26.6,26.6,100,29.90,1.0,North,4.6,-,N/A,Snow,Light Snow,10,2013-04-18 13:56:00
9:17 AM,28.4,26.6,93,29.89,1.0,North,5.8,-,N/A,Snow,Light Snow,350,2013-04-18 14:17:00
9:37 AM,28.4,26.6,93,29.88,1.0,North,8.1,-,N/A,Snow,Light Snow,360,2013-04-18 14:37:00
9:56 AM,28.4,26.6,93,29.86,2.0,North,4.6,-,N/A,Snow,Light Snow,350,2013-04-18 14:56:00
10:17 AM,30.2,26.6,86,29.86,4.0,North,6.9,-,N/A,Snow,Light Snow,360,2013-04-18 15:17:00
10:37 AM,30.2,26.6,86,29.84,2.5,North,6.9,-,N/A,Snow,Light Snow,360,2013-04-18 15:37:00
10:56 AM,30.2,26.6,86,29.82,2.5,North,10.4,16.1,N/A,Snow,Light Snow,10,2013-04-18 15:56:00
11:17 AM,30.2,26.6,86,29.82,4.0,North,11.5,17.3,N/A,Snow,Light Snow,360,2013-04-18 16:17:00
11:36 AM,30.2,26.6,86,29.83,7.0,North,10.4,16.1,N/A,Snow,Light Snow,360,2013-04-18 16:36:00
11:56 AM,30.2,26.6,86,29.81,7.0,North,6.9,18.4,N/A,Snow,Light Snow,10,2013-04-18 16:56:00
12:17 PM,30.2,26.6,86,29.79,4.0,North,9.2,-,N/A,Snow,Light Snow,360,2013-04-18 17:17:00
12:36 PM,32.0,26.6,80,29.78,4.0,North,8.1,19.6,N/A,Snow,Light Snow,10,2013-04-18 17:36:00
12:56 PM,30.2,26.6,86,29.78,4.0,North,11.5,16.1,N/A,Snow,Light Snow,10,2013-04-18 17:56:00
1:17 PM,30.2,26.6,86,29.77,5.0,North,8.1,16.1,N/A,Snow,Light Snow,10,2013-04-18 18:17:00
1:36 PM,32.0,26.6,80,29.76,2.5,North,8.1,-,N/A,Snow,Light Snow,360,2013-04-18 18:36:00
1:57 PM,32.0,26.6,80,29.78,2.0,North,10.4,-,N/A,Snow,Light Snow,10,2013-04-18 18:57:00
2:16 PM,32.0,28.4,87,29.78,1.2,North,6.9,-,N/A,Snow,Light Snow,360,2013-04-18 19:16:00
2:36 PM,30.2,28.4,93,29.77,1.0,North,8.1,16.1,N/A,Snow,Light Snow,10,2013-04-18 19:36:00
2:57 PM,30.2,28.4,93,29.75,1.2,North,9.2,-,N/A,Snow,Light Snow,10,2013-04-18 19:57:00
3:37 PM,30.2,28.4,93,29.75,2.0,NNW,10.4,-,N/A,Snow,Light Snow,330,2013-04-18 20:37:00
4:16 PM,30.2,28.4,93,29.74,1.2,North,6.9,16.1,N/A,Snow,Light Snow,360,2013-04-18 21:16:00
4:37 PM,30.2,28.4,93,29.74,0.2,North,8.1,-,0.01,Snow,Snow,350,2013-04-18 21:37:00
4:57 PM,30.2,28.4,93,29.72,0.5,North,9.2,-,N/A,Snow,Light Snow,350,2013-04-18 21:57:00
5:16 PM,30.2,28.4,93,29.71,0.2,North,6.9,-,N/A,Snow,Snow,360,2013-04-18 22:16:00
5:37 PM,30.2,28.4,93,29.71,0.5,North,9.2,-,N/A,Snow,Snow,360,2013-04-18 22:37:00
5:57 PM,30.2,28.4,93,29.71,0.8,North,6.9,-,N/A,Snow,Light Snow,350,2013-04-18 22:57:00
6:16 PM,30.2,28.4,93,29.71,1.0,NNW,6.9,-,N/A,Snow,Light Snow,340,2013-04-18 23:16:00
6:37 PM,30.2,30.2,100,29.69,1.0,North,6.9,-,0.01,Snow,Light Snow,350,2013-04-18 23:37:00
6:56 PM,30.2,28.4,93,29.68,1.0,NNW,11.5,18.4,N/A,Snow,Light Snow,340,2013-04-18 23:56:00
7:16 PM,30.2,28.4,93,29.68,1.0,North,10.4,-,0.01,Snow,Light Snow,350,2013-04-19 00:16:00
7:37 PM,30.2,28.4,93,29.67,0.8,North,9.2,-,0.01,Snow,Light Snow,350,2013-04-19 00:37:00
7:56 PM,30.2,28.4,93,29.66,0.5,North,8.1,18.4,N/A,Snow,Light Snow,350,2013-04-19 00:56:00
8:17 PM,30.2,28.4,93,29.67,1.0,North,8.1,-,N/A,Snow,Snow,350,2013-04-19 01:17:00
8:36 PM,30.2,28.4,93,29.67,1.0,North,6.9,16.1,N/A,Snow,Snow,350,2013-04-19 01:36:00
8:57 PM,30.2,28.4,93,29.64,1.2,North,10.4,16.1,N/A,Snow,Light Snow,360,2013-04-19 01:57:00
9:17 PM,30.2,28.4,93,29.63,1.5,North,8.1,24.2,N/A,Snow,Light Snow,350,2013-04-19 02:17:00
9:36 PM,30.2,28.4,93,29.66,1.2,North,9.2,16.1,N/A,Snow,Light Snow,10,2013-04-19 02:36:00
9:57 PM,30.2,28.4,93,29.66,1.8,North,11.5,20.7,N/A,Snow,Light Snow,10,2013-04-19 02:57:00
10:37 PM,28.4,28.4,100,29.65,2.5,North,11.5,21.9,0.01,Snow,Light Snow,10,2013-04-19 03:37:00
10:57 PM,28.4,26.6,93,29.62,1.5,North,9.2,24.2,N/A,Snow,Light Snow,10,2013-04-19 03:57:00
11:16 PM,28.4,26.6,93,29.59,1.5,North,9.2,24.2,0.01,Snow,Light Snow,360,2013-04-19 04:16:00
11:36 PM,28.4,26.6,93,29.59,1.0,North,10.4,21.9,0.01,Snow,Snow,10,2013-04-19 04:36:00
11:57 PM,28.4,26.6,93,29.59,1.0,North,11.5,19.6,N/A,Snow,Light Snow,10,2013-04-19 04:57:00